THORAD AGENA D DEB, 4639

Orbit data source: Space-Track

THORAD AGENA D DEB, 4639 is space debris in SSO originally from a launch on Wed, 08 Apr 1970 UTC launched from the Air Force Western Test Range (AFWTR). Debris objects in space refer to the collection of defunct objects orbiting the Earth. Examples of debris include non-operational satellites, rocket bodies, and fragments generated from explosions, collisions, or faulty payload assembly.

Loading next visibility...
Identifier
4639, 1970-025X
Orbit
SSO
Country
Flag of USUS
Related business
Manufacturer
Unknown
Mission
Spacecraft
Bus & Motor
Unknown
Mass
Unknown
Launch date (UTC)
1970-04-08 (56 years ago)
Launch vehicle
Unknown
Launch site
Air Force Western Test Range (AFWTR)
Object type
Payload
Rocket body
Debris
Shape & HBR
Unknown shape, 0.1 m
Radar Cross Section
Small (<0.1 m²)

Expand to show TLE details & history
Last TLE update: 16 hours ago

TLE from 16 hours ago
0 THORAD AGENA D DEB
1 04639U 70025X   25286.93873352  .00000130  00000-0  34374-3 0  9997
2 04639  99.9116 357.8408 0112687 304.5585 236.6369 13.33046698696468
Epoch: 2025-10-13T22:31Z
TLE epoch observation values (Epoch: 2025-10-13T22:31:46.576Z)
Latitude
-0.23507°
Longitude
177.12154°
Altitude
1,185.309 km
Speed
7.238 km/s
True Right ascension
11h 51m 11s
True Declination
0° 14' 01"
Sunlit
Object was in daylight at epoch
Visualization orbit readout
Latitude
Unknown
Longitude
Unknown
Altitude
Unknown
Speed
Unknown
Apparent Right ascension
Unknown
Apparent Declination
Unknown
Sunlit
N/A
Visualization observer readout
Local Sidereal Time
09:00:45
Azimuth
Unknown
Elevation
Unknown
Doppler factor
Unknown
Orbital elements
Apogee altitude
1,217.264 km
Perigee altitude
1,047.991 km
Semi-major axis
7,510.765 km
Eccentricity
0.01127
Inclination
99.9116°
RAAN
357.8408°
Arg. of periapsis
304.5585°
True anomaly
235.56676°
Mean anomaly
236.6369°
Eccentric anomaly
236.101°
Mean motion
3.33439 °/min
Orbital period
107.97 mins
BSTAR
0.00034374
Loading maneuver chart data...
Computing Atmospheric mass density...

Documentation

Showing up to 5 results
|